This demonstration page uses our WeatherBlox Daily Observations layout. Learn more.

Left ArrowRight Arrow

47.50024, -111.30081

Hourly Observations for November 30, 2022

Temp ( °F °C ) Dew Point ( °F °C ) Humidity (%) Winds ( mph kmh ) Pressure ( in mb ) Visibility ( mi km ) Precip ( " mm )
12:53 am 00:53 Partly Cloudy 2 -16.7 -4 -20 75 75 E 3 6 30.21 1023 10 16 0.00 0.00
1:53 am 01:53 Cloudy 7 -13.9 0 -17.8 72 72 ESE 6 9 30.17 1022 10 16 0.00 0.00
2:53 am 02:53 Mostly Clear 2 -16.7 -4 -20 75 75 ESE 7 11 30.16 1021 10 16 0.00 0.00
3:53 am 03:53 Clear 1 -17.2 -4 -20 79 79 Calm 30.14 1021 10 16 0.00 0.00
4:53 am 04:53 Clear 1 -17.2 -4 -20 79 79 ENE 6 9 30.12 1020 10 16 0.00 0.00
5:53 am 05:53 Clear 4 -15.6 -1 -18.3 80 80 E 6 9 30.08 1019 10 16 0.00 0.00
6:53 am 06:53 Mostly Clear 3 -16.1 0 -17.8 87 87 E 7 11 30.05 1018 10 16 0.00 0.00
7:53 am 07:53 Mostly Cloudy 5 -15 2 -16.7 87 87 E 6 9 30.02 1017 10 16 0.00 0.00
8:53 am 08:53 Mostly Cloudy 7 -13.9 3 -16.1 83 83 ESE 12 19 29.99 1016 10 16 0.00 0.00
9:53 am 09:53 Sunny 8 -13.3 5 -15 87 87 ESE 10 17 29.95 1014 10 16 0.00 0.00
10:53 am 10:53 Mostly Sunny 13 -10.6 8 -13.3 80 80 ESE 9 15 29.91 1013 10 16 0.00 0.00
11:53 am 11:53 Mostly Sunny 20 -6.7 13 -10.6 74 74 SE 7 11 29.85 1011 10 16 0.00 0.00
12:53 pm 12:53 Mostly Cloudy 30 -1.1 20 -6.7 66 66 S 13 20 29.79 1009 10 16 0.00 0.00
1:53 pm 13:53 Sunny 33 0.6 21 -6.1 61 61 SSW 15 24 29.74 1007 10 16 0.00 0.00
2:53 pm 14:53 Cloudy 33 0.6 22 -5.6 63 63 SSW 10 17 29.72 1007 10 16 0.00 0.00
3:53 pm 15:53 Mostly Sunny 34 1.1 21 -6.1 59 59 SSW 6 9 29.71 1006 10 16 0.00 0.00
4:53 pm 16:53 Cloudy 35 1.7 23 -5 61 61 SSW 23 37 29.69 1005 10 16 0.00 0.00
5:53 pm 17:53 Cloudy 35 1.7 23 -5 61 61 SSW 21 33 29.67 1005 10 16 0.00 0.00
6:53 pm 18:53 Clear 35 1.7 23 -5 61 61 SSW 24 39 29.66 1004 10 16 0.00 0.00
7:53 pm 19:53 Clear 35 1.7 24 -4.4 64 64 S 26 43 29.64 1004 10 16 0.00 0.00
8:53 pm 20:53 Clear 35 1.7 24 -4.4 64 64 SSW 23 37 29.64 1004 10 16 0.00 0.00
9:53 pm 21:53 Clear 35 1.7 24 -4.4 64 64 S 18 30 29.64 1004 10 16 0.00 0.00
10:53 pm 22:53 Mostly Cloudy 36 2.2 23 -5 59 59 Calm 29.64 1004 10 16 0.00 0.00
11:34 pm 23:34 Mostly Cloudy 16 -8.9 13 -10.6 87 87 NW 14 22 29.76 1008 10 16 0.00 0.00
11:53 pm 23:53 Clear 11 -11.7 8 -13.3 88 88 NW 17 28 29.72 1007 10 16 0.00 0.00

Powered by AerisWeather